Flag for Brazil Weather past 2 weeks in Rio Grande, Rio Grande do Sul, Brazil

Now
63 °F

Clear.


Feels Like: 63 °F
Forecast: 63 / 73 °F
Wind: 7 mph from South

Location: Pelotas Airport

Current Time: Dec 23, 2014 at 2:40:34 AM

Latest Report: Dec 23, 2014 at 2:00 AM


Visibility: 10 mi

Pressure: 30.12 "Hg

Humidity: 77%

Dew point: 55 °F

Location of Rio GrandeLocation

Historic Weather in Rio Grande — Graph

°F

Rio Grande temperature yesterday

Maximum temperature yesterday: 75 °F (at 5:00 PM)
Minimum temperature yesterday: 59 °F (at 7:00 AM)
Average temperature yesterday: 67 °F

Past Weeks' High & Low Weather Summary

 TemperatureHumidityPressure
High90 °F (Dec 8, 1:00 PM)100% (Dec 8, 10:00 PM)30.27 "Hg (Dec 8, 10:00 PM)
Low59 °F (Dec 15, 2:00 AM)27% (Dec 19, 4:00 PM)29.50 "Hg (Dec 21, 4:00 PM)
Average72 °F81%29.87 "Hg
* Reported Dec 8 1:00 AM — Dec 23 1:00 AM, Rio Grande, Weather by CustomWeather, © 2014

Note: Actual official high and low records may vary slightly from our data, if they occured in-between our weather recording intervals... More about our weather records

Advertising

Rio Grande weather history for previous 24 hours

 ConditionsComfort  
Time TempWeatherWind HumidityBarometerVisibility
1:00 AM
Dec 23
61 °FClear.3 mph83%30.12 "Hg10 mi
12:00 AM61 °FClear.2 mph88%30.12 "Hg10 mi
11:00 PM
Dec 22
63 °FThundershowers. Passing clouds.5 mph83%30.12 "HgN/A
10:00 PM64 °FClear.6 mph73%30.09 "Hg10 mi
9:00 PM66 °FClear.7 mph68%30.07 "Hg10 mi
8:00 PM70 °FPassing clouds.10 mph57%30.04 "HgN/A
7:00 PM73 °FPassing clouds.9 mph36%30.04 "HgN/A
6:00 PM73 °FPassing clouds.14 mph38%30.01 "HgN/A
5:00 PM75 °FPassing clouds.13 mph39%30.01 "HgN/A
4:00 PM73 °FScattered clouds.12 mph47%30.01 "HgN/A
3:00 PM73 °FPassing clouds.14 mph50%30.01 "HgN/A
2:00 PM73 °FScattered clouds.15 mph53%30.01 "HgN/A
1:00 PM72 °FPassing clouds.16 mph61%30.01 "HgN/A
12:00 PM70 °FScattered clouds.20 mph64%29.98 "HgN/A
11:00 AM68 °FScattered clouds.15 mph73%29.98 "HgN/A
10:00 AM66 °FScattered clouds.16 mph83%29.98 "HgN/A
9:00 AM64 °FSunny.9 mph83%29.95 "Hg10 mi
8:00 AM61 °FSunny.16 mph88%29.92 "Hg10 mi
7:00 AM59 °FSunny.10 mph94%29.89 "Hg10 mi
6:00 AM61 °FPassing clouds.10 mph88%29.86 "HgN/A
5:00 AM61 °FPassing clouds.14 mph88%29.83 "HgN/A
4:00 AM63 °FPassing clouds.12 mph88%29.83 "HgN/A
3:00 AM63 °FPassing clouds.12 mph94%29.80 "HgN/A
2:00 AM63 °FPassing clouds.14 mph100%29.77 "Hg5 mi
Weather by CustomWeather, © 2014

See weather overviewHow to use our weather pages